UC IPM Online UC ANR home page UC IPM home page

UC IPM Home

SKIP navigation

 

How to Manage Pests

Interactive Tools and Models:
Grape Powdery Mildew Risk Assessment Index

RAI report for Del_Rey/Fowler-01.P (DELF)

Time period: March 19, 2012, to September 29, 2012,
retrieved on December 20, 2014.
Choose year
Graph of RAI for Del_Rey/Fowler-01.P
Date RAI Disease pressure Pathogen status Hours
70° ≤ Temp ≤ 85°
Hours
Temp > 95°
Notes
03/19/2012 0 n/a no infection 0.0 0.00  
03/20/2012 0 n/a no infection 0.0 0.00  
03/21/2012 0 n/a no infection 1.3 0.00  
03/22/2012 0 n/a no infection 0.0 0.00  
03/23/2012 0 n/a no infection 0.0 0.00  
03/24/2012 0 n/a no infection 3.0 0.00  
03/25/2012 0 n/a no infection 0.0 0.00  
03/26/2012 0 n/a no infection 0.0 0.00  
03/27/2012 0 n/a no infection 0.0 0.00  
03/28/2012 0 n/a no infection .7 0.00  
03/29/2012 0 n/a no infection .2 0.00  
03/30/2012 0 n/a no infection 5.4 0.00  
03/31/2012 0 n/a no infection .1 0.00  
04/01/2012 0 n/a no infection 0.0 0.00  
04/02/2012 0 n/a no infection 0.0 0.00  
04/03/2012 0 n/a no infection 4.5 0.00  
04/04/2012 0 n/a no infection 0.0 0.00  
04/05/2012 0 n/a no infection 0.0 0.00  
04/06/2012 0 n/a no infection 0.0 0.00  
04/07/2012 0 n/a no infection 4.6 0.00  
04/08/2012 20 n/a no infection 8.2 0.00  
04/09/2012 40 n/a no infection 7.5 0.00  
04/10/2012 0 n/a no infection 5.5 0.00  
04/11/2012 0 n/a no infection 0.0 0.00  
04/12/2012 0 n/a no infection 0.0 0.00  
04/13/2012 0 n/a no infection 0.0 0.00  
04/14/2012 0 n/a no infection 0.0 0.00  
04/15/2012 0 n/a no infection 0.0 0.00  
04/16/2012 20 n/a no infection 6.0 0.00  
04/17/2012 40 n/a no infection 7.4 0.00  
04/18/2012 0 n/a no infection 4.8 0.00  
04/19/2012 20 n/a no infection 8.5 0.00  
04/20/2012 0 n/a no infection 5.9 0.00  
04/21/2012 0 n/a no infection 4.1 0.00  
04/22/2012 0 n/a no infection 5.2 .81  
04/23/2012 20 n/a no infection 12.0 0.00  
04/24/2012 40 n/a no infection 7.8 0.00  
04/25/2012 60 high reproduces every 5 days 9.0 0.00  
04/26/2012 50 intermediate reproduces every 15 days 0.0 0.00  
04/27/2012 40 intermediate reproduces every 15 days 1.3 0.00  
04/28/2012 60 high reproduces every 5 days 8.1 0.00  
04/29/2012 50 intermediate reproduces every 15 days 5.7 0.00  
04/30/2012 40 intermediate reproduces every 15 days 5.4 0.00  
05/01/2012 60 high reproduces every 5 days 9.5 0.00  
05/02/2012 80 high reproduces every 5 days 8.8 0.00  
05/03/2012 100 high reproduces every 5 days 8.5 0.00  
05/04/2012 100 high reproduces every 5 days 7.6 0.00  
05/05/2012 100 high reproduces every 5 days 8.0 0.00  
05/06/2012 100 high reproduces every 5 days 10.5 0.00  
05/07/2012 90 high reproduces every 5 days 3.5 0.00  
05/08/2012 80 high reproduces every 5 days 2.5 0.00  
05/09/2012 70 high reproduces every 5 days 3.6 4.32  
05/10/2012 60 high reproduces every 5 days 3.9 0.00  
05/11/2012 50 intermediate reproduces every 15 days 3.1 0.00  
05/12/2012 40 intermediate reproduces every 15 days 2.6 1.19  
05/13/2012 30 intermediate reproduces every 15 days 3.6 3.20  
05/14/2012 50 intermediate reproduces every 15 days 10.6 0.00  
05/15/2012 70 high reproduces every 5 days 10.5 0.00  
05/16/2012 60 high reproduces every 5 days 3.6 0.00  
05/17/2012 50 intermediate reproduces every 15 days 3.0 0.00  
05/18/2012 70 high reproduces every 5 days 10.3 0.00  
05/19/2012 60 high reproduces every 5 days 3.4 0.00  
05/20/2012 50 intermediate reproduces every 15 days 4.2 .14  
05/21/2012 40 intermediate reproduces every 15 days 4.3 0.00  
05/22/2012 30 intermediate reproduces every 15 days 5.6 0.00  
05/23/2012 50 intermediate reproduces every 15 days 12.1 0.00  
05/24/2012 70 high reproduces every 5 days 11.1 0.00  
05/25/2012 60 high reproduces every 5 days 0.0 0.00  
05/26/2012 80 high reproduces every 5 days 6.8 0.00  
05/27/2012 100 high reproduces every 5 days 9.3 0.00  
05/28/2012 100 high reproduces every 5 days 11.5 0.00  
05/29/2012 90 high reproduces every 5 days 4.9 0.00  
05/30/2012 80 high reproduces every 5 days 4.0 0.00  
05/31/2012 70 high reproduces every 5 days 3.6 4.03  
06/01/2012 60 high reproduces every 5 days 4.4 6.40  
06/02/2012 50 intermediate reproduces every 15 days 5.7 0.00  
06/03/2012 40 intermediate reproduces every 15 days 4.9 0.00  
06/04/2012 60 high reproduces every 5 days 8.7 0.00  
06/05/2012 50 intermediate reproduces every 15 days 4.1 0.00  
06/06/2012 70 high reproduces every 5 days 9.1 0.00  
06/07/2012 90 high reproduces every 5 days 6.0 0.00  
06/08/2012 100 high reproduces every 5 days 6.3 0.00  
06/09/2012 100 high reproduces every 5 days 9.9 0.00  
06/10/2012 90 high reproduces every 5 days 4.6 0.00  
06/11/2012 80 high reproduces every 5 days 2.8 1.20  
06/12/2012 70 high reproduces every 5 days 4.5 4.96  
06/13/2012 90 high reproduces every 5 days 6.0 0.00  
06/14/2012 80 high reproduces every 5 days 4.8 0.00  
06/15/2012 70 high reproduces every 5 days 5.6 0.00  
06/16/2012 60 high reproduces every 5 days 5.2 5.78  
06/17/2012 50 intermediate reproduces every 15 days 5.4 8.73  
06/18/2012 40 intermediate reproduces every 15 days 4.6 5.03  
06/19/2012 30 intermediate reproduces every 15 days 4.3 0.00  
06/20/2012 20 low is present 3.2 .53  
06/21/2012 10 low is present 3.6 .69  
06/22/2012 30 intermediate reproduces every 15 days 6.3 0.00  
06/23/2012 50 intermediate reproduces every 15 days 12.2 0.00  
06/24/2012 70 high reproduces every 5 days 10.2 0.00  
06/25/2012 90 high reproduces every 5 days 11.9 0.00  
06/26/2012 100 high reproduces every 5 days 11.2 0.00  
06/27/2012 90 high reproduces every 5 days 3.9 0.00  
06/28/2012 80 high reproduces every 5 days 4.9 0.00  
06/29/2012 70 high reproduces every 5 days 5.2 0.00  
06/30/2012 60 high reproduces every 5 days 5.2 0.00  
07/01/2012 80 high reproduces every 5 days 6.9 0.00  
07/02/2012 70 high reproduces every 5 days 5.1 0.00  
07/03/2012 60 high reproduces every 5 days 5.6 0.00  
07/04/2012 50 intermediate reproduces every 15 days 4.5 4.90  
07/05/2012 40 intermediate reproduces every 15 days 4.6 0.00  
07/06/2012 30 intermediate reproduces every 15 days 4.6 0.00  
07/07/2012 20 low is present 4.9 5.00  
07/08/2012 10 low is present 5.0 6.05  
07/09/2012 0 low is present 5.5 5.19  
07/10/2012 0 low is present 4.6 5.91  
07/11/2012 0 low is present 4.0 6.18  
07/12/2012 0 low is present 5.9 6.08  
07/13/2012 10 low is present 12.6 4.09  
07/14/2012 0 low is present 4.4 0.00  
07/15/2012 0 low is present 4.1 0.00  
07/16/2012 0 low is present 3.9 0.00  
07/17/2012 20 low is present 12.3 0.00  
07/18/2012 40 intermediate reproduces every 15 days 7.0 0.00  
07/19/2012 30 intermediate reproduces every 15 days 5.9 .39  
07/20/2012 20 low is present 5.7 0.00  
07/21/2012 10 low is present 4.4 5.81  
07/22/2012 0 low is present 4.8 7.21  
07/23/2012 0 low is present 5.8 6.66  
07/24/2012 0 low is present 3.2 3.48  
07/25/2012 0 low is present 4.3 2.07  
07/26/2012 0 low is present 4.3 0.00  
07/27/2012 0 low is present 4.7 0.00  
07/28/2012 0 low is present 4.7 .04  
07/29/2012 0 low is present 4.6 .13  
07/30/2012 0 low is present 2.5 4.48  
07/31/2012 0 low is present 4.4 6.36  
08/01/2012 0 low is present 4.4 6.70  
08/02/2012 0 low is present 3.7 6.49  
08/03/2012 0 low is present 3.7 4.55  
08/04/2012 0 low is present 4.3 3.86  
08/05/2012 0 low is present 4.9 2.80  
08/06/2012 0 low is present 5.2 3.92  
08/07/2012 0 low is present 3.9 5.37  
08/08/2012 0 low is present 5.3 5.49  
08/09/2012 0 low is present 4.6 7.84  
08/10/2012 0 low is present 4.7 8.41  
08/11/2012 0 low is present 4.6 8.69  
08/12/2012 10 low is present 13.4 4.04  
08/13/2012 20 low is present 6.7 8.06  
08/14/2012 30 intermediate reproduces every 15 days 11.2 8.24  
08/15/2012 20 low is present 5.9 7.55  
08/16/2012 10 low is present 5.4 6.17  
08/17/2012 0 low is present 5.1 7.05  
08/18/2012 10 low is present 13.1 4.98  
08/19/2012 20 low is present 9.1 5.07  
08/20/2012 10 low is present 4.6 5.85  
08/21/2012 0 low is present 4.8 5.74  
08/22/2012 10 low is present 6.2 4.17  
08/23/2012 0 low is present 5.3 5.34  
08/24/2012 0 low is present 5.6 5.28  
08/25/2012 0 low is present 5.5 3.71  
08/26/2012 0 low is present 4.2 0.00  
08/27/2012 0 low is present 2.9 0.00  
08/28/2012 0 low is present 2.6 3.61  
08/29/2012 0 low is present 3.2 4.49  
08/30/2012 0 low is present 4.0 7.03  
08/31/2012 0 low is present 4.2 .25  
09/01/2012 0 low is present 3.8 0.00  
09/02/2012 0 low is present 3.0 0.00  
09/03/2012 0 low is present 2.5 5.06  
09/04/2012 0 low is present 5.0 6.46  
09/05/2012 10 low is present 7.4 4.27  
09/06/2012 0 low is present 5.2 4.76  
09/07/2012 0 low is present 5.2 3.28  
09/08/2012 10 low is present 6.7 2.63  
09/09/2012 0 low is present 5.3 4.37  
09/10/2012 0 low is present 5.8 4.30  
09/11/2012 0 low is present 2.8 2.76  
09/12/2012 0 low is present 5.2 2.69  
09/13/2012 0 low is present 5.2 6.27  
09/14/2012 0 low is present 5.4 7.15  
09/15/2012 0 low is present 5.6 6.08  
09/16/2012 0 low is present 4.4 5.79  
09/17/2012 0 low is present 4.1 3.50  
09/18/2012 0 low is present 3.4 .01  
09/19/2012 0 low is present 3.2 0.00  
09/20/2012 0 low is present 3.3 0.00  
09/21/2012 0 low is present 3.0 1.30  
09/22/2012 0 low is present 2.4 4.61  
09/23/2012 0 low is present 4.6 6.17  
09/24/2012 0 low is present 3.7 2.60  
09/25/2012 0 low is present 3.6 0.00  
09/26/2012 0 low is present 2.0 2.02  
09/27/2012 0 low is present 4.3 3.30  
09/28/2012 0 low is present 3.9 .44  
09/29/2012 0 low is present 2.6 .44  

Top of page


Statewide IPM Program, Agriculture and Natural Resources, University of California
All contents copyright 2014 The Regents of the University of California. All rights reserved.

For noncommercial purposes only, any Web site may link directly to this page. FOR ALL OTHER USES or more information, read Legal Notices. Unfortunately, we cannot provide individual solutions to specific pest problems. See our Home page, or in the U.S., contact your local Cooperative Extension office for assistance.

Agriculture and Natural Resources, University of California

Accessibility   web template revised: December 20, 2014 Contact webmaster.